Details for AirAsia Thailand at VTSP




Go Back


Latest METAR
Local Time

VTSP 221030Z VRB01KT 9000 FEW020 BKN100 27/23 Q1011 NOSIG
22/09/2018, 18:05:48

Description
Results
AirAsia Thailand Logo
Number of Pilots based at VTSP
0 Pilots Based here
Number of AirAsia Thailand Flights Departed from VTSP
0 Flights Departed
Number of AirAsia Thailand Flights Arrived at VTSP
0 Flights Arrived
Number of AirAsia Thailand Schedules Departing from VTSP
31 Schedules
Number of AirAsia Thailand Schedules Arriving at VTSP
31 Schedules
Number of AirAsia Thailand Schedules Departing from VTSP availible today
29 Schedules Today
Number of AirAsia Thailand Schedules Arriving at VTSP availible today
29 Schedules Today
Average Landing Rate at VTSP
-173 fpm
AirAsia Thailand Average Landing Rate at VTSP
0 fpm
Total Fuel Purchased at VTSP by AirAsia Thailand
0.00 kgs / 0.00 lbs

Pilots Based at VTSP


Pilot ID
Pilot Name
Pilot Rank
No. of Flights
No. of Flying Hours
There are no pilots assigned to this hub!   Will you be the first?
Content